TITAN 3C TRANSTAGE DEB, 43283

Orbit data source: Space-Track

TITAN 3C TRANSTAGE DEB, 43283 is space debris in GEO originally from a launch on Sun, 09 Feb 1969 UTC launched from the Air Force Eastern Test Range (AFETR). Debris objects in space refer to the collection of defunct objects orbiting the Earth. Examples of debris include non-operational satellites, rocket bodies, and fragments generated from explosions, collisions, or faulty payload assembly.

Not visible in the next 10 days
Identifier
43283, 1969-013D
Orbit
GEO
Last TLE update
1 day ago
Origin
Manufacturer
Martin Marietta
Mission
Spacecraft
Bus & Motor
Unknown
Mass
Unknown
Launch date (UTC)
1969-02-09 (56 years ago)
Launch vehicle
Unknown
Launch site
Air Force Eastern Test Range (AFETR)
Object type
Payload
Rocket body
Debris
Shape & HBR
Unknown
Radar Cross Section
RCS unknown

Expand to show TLE details & history

TLE from 1 day ago
0 TITAN 3C TRANSTAGE DEB
1 43283U 69013D   25180.98265755 -.00000129  00000-0  00000-0 0  9995
2 43283   0.4779 108.5676 0330013 120.3204 128.1911  0.93096840 24811
Epoch: 2025-06-29T23:35Z
TLE epoch observation values (Epoch: 2025-06-29T23:35:01.612Z)
Latitude
-0.4616°
Longitude
87.94377°
Altitude
38,853.033 km
Speed
2.937 km/s
True Right ascension
23h 59m 59s
True Declination
0° 27' 40"
Sunlit
Object was in daylight at epoch
Visualization orbit readout
Latitude
-0.05289°
Longitude
-172.26716°
Altitude
38,822.477 km
Speed
2.939 km/s
Apparent Right ascension
06h 50m 02s
Apparent Declination
-4° 44' 39"
Sunlit
Object is in daylight
Visualization observer readout
Local Sidereal Time
20:33:57
Azimuth
40.487° NE
Elevation
-47.747°
Doppler factor
1
Orbital elements
Apogee altitude
39,389.249 km
Perigee altitude
36,464.987 km
Semi-major axis
44,305.255 km
Eccentricity
0.033
Inclination
0.4779°
RAAN
108.5676°
Arg. of periapsis
120.3204°
True anomaly
Unknown
Mean anomaly
128.1911°
Eccentric anomaly
Unknown
Mean motion
0.23273 °/min
Orbital period
1,546.83 mins
BSTAR
0
Loading historical data...
43283 neighbors
Loading maneuver chart data...
Loading SW <> Apogee altitude chart data...

TITAN 3C TRANSTAGE DEB Visibility

Observer location: undefined°, undefined°

TITAN 3C TRANSTAGE DEB is likely not visible in the next few days
Span
Click to sort rows by Start time (UTC) header in descending order
Start Az.
Max El. time (UTC)
Max El. Az.
Max El.
End time (UTC)
End Az.
|